Wind_Speed
8 7 6 5 5 4 4 4 4 4 3 2 2 2 2 2 2 2 2 3 4 4 3 4 5 6 7 8 8 9 9 9 9 10 10 10 10 10 9 9 8 8 7
8 7 6 5 4 4 3 3 4 3 3 3 2 2 2 2 2 2 2 2 3 3 3 3 4 5 6 6 7 9 9 9 9 10 10 11 11 11 11 10 10 10 9
10 9 7 6 4 4 3 3 3 3 3 2 2 2 2 2 3 2 1 2 3 3 3 3 3 4 4 5 6 7 8 10 10 10 11 11 12 11 11 11 11 11 11
11 9 7 6 5 4 3 3 3 3 3 2 2 3 3 3 3 2 2 2 2 3 3 3 3 4 4 5 5 6 6 8 10 10 11 12 12 12 12 13 12 12 12
12 10 8 7 6 5 4 3 3 3 3 3 2 2 2 3 2 2 2 2 2 2 3 3 3 4 4 5 5 6 6 7 7 9 10 11 12 12 13 13 13 13 13
12 11 9 8 7 6 5 4 3 3 3 3 2 2 2 2 1 1 1 2 2 2 3 2 2 3 3 4 5 5 5 6 7 7 8 10 11 12 12 13 14 14 14
14 12 10 9 8 7 6 5 5 4 3 3 3 2 2 2 2 1 1 2 2 2 2 2 2 2 2 3 3 4 5 5 6 7 7 8 10 12 13 13 14 14 14
14 13 12 11 9 8 7 6 6 5 4 4 4 3 3 3 3 2 2 2 2 2 1 1 2 1 2 2 2 3 3 4 5 6 6 6 7 8 10 12 13 13 13
15 15 14 13 11 10 9 8 7 6 5 5 5 4 4 3 3 3 3 2 2 1 1 1 1 2 2 2 2 2 3 4 4 5 5 6 5 6 7 8 10 11 12
17 16 15 14 13 12 11 10 9 8 7 7 6 5 4 4 3 3 3 2 2 2 2 2 2 2 3 3 2 2 3 3 4 5 5 6 6 7 7 8 9 11 11
17 17 17 16 15 13 12 11 11 10 9 8 7 6 5 5 4 4 4 4 4 4 4 4 4 4 4 4 5 5 4 5 5 6 6 7 7 8 8 9 9 10 11
18 18 18 17 16 15 14 13 13 12 11 10 9 9 8 7 7 6 6 6 6 6 6 6 6 6 7 7 7 7 7 8 8 8 9 9 10 10 11 11 12 12 12
20 19 19 18 17 16 15 15 15 14 13 12 12 11 10 10 10 9 9 9 9 9 9 10 10 10 10 10 11 11 11 11 11 12 12 13 13 14 14 15 15 16 16
21 20 20 19 18 17 17 17 17 16 15 15 14 14 13 13 13 12 12 12 13 13 13 13 13 13 14 14 15 15 15 16 16 16 17 17 17 18 18 19 19 19 20
21 21 20 20 20 19 19 19 19 18 17 17 17 17 16 16 16 16 16 16 16 17 17 17 17 17 17 18 18 19 20 20 21 21 21 21 22 22 22 23 24 24 24
21 20 20 21 21 20 20 20 20 19 19 19 19 19 19 20 19 19 19 19 19 20 20 20 20 21 21 21 22 23 24 24 24 25 25 26 26 27 27 28 28 28 29
20 20 20 20 21 22 22 21 21 21 21 21 21 21 21 22 22 22 22 22 22 22 23 23 23 23 24 24 25 25 26 26 27 28 28 29 29 30 31 31 32 32 33
18 19 20 20 20 21 22 23 23 23 23 23 23 23 23 24 24 24 24 24 24 25 25 26 26 26 26 27 27 28 29 29 30 31 32 32 33 34 34 35 36 36 36
17 19 20 20 20 21 22 23 24 24 24 24 24 24 24 24 24 24 25 26 26 27 27 28 29 29 30 30 30 31 32 33 34 35 36 36 37 38 39 39 40 40 41
17 17 19 19 19 19 21 22 23 24 25 25 24 24 25 25 26 26 26 27 27 28 29 30 31 32 33 34 34 35 36 36 38 39 39 40 40 41 43 44 44 45 46
15 16 17 18 18 19 21 21 22 23 24 25 25 26 26 27 27 28 28 29 30 30 31 32 33 35 36 38 38 39 40 40 41 42 43 43 44 45 46 47 48 49 50
15 16 16 17 18 19 20 21 22 23 24 25 26 27 27 28 29 30 31 32 33 34 35 36 37 38 39 41 42 43 44 45 45 46 47 47 49 49 50 51 52 53 53
14 15 16 17 18 19 20 20 21 23 24 25 27 28 30 31 31 32 33 34 35 36 38 39 40 42 43 44 45 46 47 48 49 49 51 51 52 53 54 55 56 57 57
16 17 18 19 19 20 21 23 25 26 28 29 30 31 32 33 34 35 36 37 38 39 40 41 43 44 45 45 47 48 49 51 52 53 54 54 55 56 58 59 61 62 62
17 18 19 20 21 22 23 25 27 28 30 31 32 33 34 35 36 37 38 39 40 42 43 44 45 46 47 48 50 51 52 54 55 57 59 60 60 61 61 63 64 65 66
20 21 22 23 24 25 26 28 29 31 32 33 34 34 36 37 38 39 41 42 43 45 46 48 49 50 51 52 53 55 56 58 59 60 62 63 65 66 65 65 65 66 67
Wind_Direction
244 244 250 258 264 276 283 280 282 286 286 280 274 272 280 270 259 272 263 241 224 224 227 227 228 231 233 233 230 227 228 232 235 238 236 235 238 241 245 249 253 255 258
234 237 244 250 257 273 283 285 278 274 272 267 261 254 255 250 246 273 270 238 223 221 226 227 220 222 222 226 228 231 233 234 239 240 238 240 243 245 247 251 253 256 259
230 231 236 237 244 258 270 273 266 255 250 252 249 245 238 241 250 253 246 235 224 224 225 210 196 198 213 220 228 232 236 236 239 241 243 243 243 246 248 251 253 257 259
224 223 225 224 228 238 247 253 249 240 237 237 243 245 238 234 245 242 224 206 205 206 208 205 198 204 212 223 232 235 238 239 240 243 244 243 244 247 249 251 251 254 257
221 222 219 218 226 233 233 237 230 220 227 233 232 228 228 236 247 248 216 193 186 184 179 193 207 217 223 227 237 242 245 242 241 243 244 244 246 250 250 252 249 253 257
218 219 218 219 225 228 227 227 212 207 218 226 220 214 217 223 237 216 178 175 176 177 175 181 193 209 220 231 241 244 246 246 244 246 246 248 250 252 253 253 254 255 257
216 216 218 220 222 224 221 214 205 203 208 207 201 194 191 196 204 207 177 181 186 186 183 187 180 191 212 230 237 247 246 244 245 250 252 254 256 255 255 256 257 258 259
216 216 217 219 218 218 215 211 209 208 211 208 197 186 181 183 185 180 175 162 162 167 179 177 162 174 206 222 229 235 239 242 245 253 257 262 265 260 258 256 256 260 262
215 215 216 217 216 214 215 215 214 213 213 210 200 191 184 174 174 177 178 176 177 183 197 195 187 195 210 215 230 243 243 248 254 260 262 266 270 271 270 265 262 262 263
215 215 216 217 217 217 217 218 218 221 221 216 210 206 197 193 192 195 203 215 221 227 234 239 236 237 240 237 243 253 263 269 266 263 263 263 270 276 275 274 270 268 267
218 217 218 219 220 221 221 223 223 227 227 222 221 219 216 216 218 222 230 242 249 253 254 252 253 258 265 265 263 266 272 278 274 269 265 265 271 274 277 279 278 274 271
219 220 220 221 223 224 225 227 229 231 232 231 231 230 229 231 234 237 241 248 256 260 261 262 264 267 272 274 275 275 275 277 279 279 278 278 278 279 278 278 277 277 276
220 221 221 224 226 226 230 232 233 235 238 239 240 241 241 243 246 249 252 256 261 265 267 269 270 270 272 273 274 274 275 276 277 277 278 278 278 278 278 278 277 277 276
223 222 223 225 227 230 233 235 237 240 241 243 245 248 251 253 254 257 261 264 266 266 268 269 271 272 272 273 273 274 275 276 276 277 277 278 279 279 278 278 278 277 276
221 223 227 229 232 234 236 238 239 241 243 246 249 252 256 259 260 262 265 268 269 269 270 271 272 273 274 274 274 275 275 276 276 277 277 277 277 277 278 278 277 276 276
222 225 229 231 234 237 239 240 241 244 246 249 251 255 259 261 263 265 267 269 271 272 273 273 273 273 274 275 276 276 277 278 278 278 278 278 278 277 277 276 275 275 274
224 227 233 235 239 241 242 243 244 247 249 251 254 257 261 264 265 268 269 271 273 275 275 275 274 274 275 276 276 276 278 279 279 280 280 279 279 278 277 276 276 275 274
228 234 236 239 242 243 246 247 247 249 252 254 257 260 263 265 267 269 271 272 274 275 277 276 275 275 275 275 276 277 278 278 279 279 279 279 279 278 277 277 276 274 273
231 236 238 243 246 246 246 248 251 252 254 256 258 261 263 265 266 269 273 274 275 277 277 277 277 277 276 276 277 278 279 279 279 279 279 279 278 278 277 277 276 275 274
236 238 241 244 248 250 249 251 253 255 256 256 258 261 263 266 268 271 273 275 276 277 277 278 278 279 279 279 279 279 279 280 279 280 280 279 278 277 276 276 276 275 274
239 242 244 246 249 249 251 254 255 256 258 259 260 262 264 267 269 272 274 274 275 277 279 280 280 279 280 280 280 280 280 280 280 280 279 279 279 278 277 276 275 275 274
244 246 249 252 254 255 254 256 258 259 262 263 264 265 266 269 272 273 274 275 276 278 280 280 280 280 280 281 281 281 280 280 280 280 280 280 280 279 278 277 276 275 274
251 253 258 262 263 263 261 261 263 264 266 269 269 269 270 271 273 275 276 277 277 279 280 281 281 281 282 282 282 282 281 280 281 280 280 280 280 280 279 278 277 276 275
260 262 264 265 267 268 268 268 269 270 270 271 272 271 271 271 273 274 276 277 278 280 281 281 281 281 282 281 282 282 282 282 282 281 281 281 280 280 279 278 277 276 275
272 272 270 270 271 272 272 271 273 274 274 274 274 273 273 274 274 276 278 279 280 281 281 281 282 282 282 281 281 282 282 282 282 282 282 282 281 280 280 279 279 278 277
279 277 274 274 274 276 277 276 275 276 277 276 275 275 276 277 278 279 280 281 281 281 282 282 282 282 282 282 282 282 283 283 282 282 282 282 282 281 280 280 279 278 277
Height
5885 5886 5886 5886 5886 5886 5886 5885 5885 5885 5884 5884 5884 5884 5884 5884 5884 5884 5884 5884 5884 5884 5885 5885 5885 5886 5887 5887 5888 5889 5889 5890 5891 5891 5892 5893 5893 5894 5894 5894 5895 5895 5895
5884 5885 5885 5885 5885 5885 5885 5885 5884 5884 5884 5884 5884 5883 5883 5883 5883 5883 5883 5883 5883 5883 5884 5884 5884 5884 5885 5886 5886 5887 5888 5888 5889 5890 5890 5891 5891 5892 5892 5893 5893 5893 5893
5882 5883 5884 5884 5884 5884 5884 5884 5884 5883 5883 5883 5883 5883 5883 5882 5882 5882 5882 5882 5882 5882 5883 5883 5883 5883 5884 5884 5885 5885 5886 5886 5887 5888 5888 5889 5889 5890 5890 5891 5891 5891 5891
5880 5881 5882 5883 5883 5884 5884 5883 5883 5883 5883 5882 5882 5882 5882 5882 5881 5881 5881 5881 5881 5882 5882 5882 5882 5882 5883 5883 5883 5883 5884 5884 5885 5885 5886 5886 5887 5887 5888 5888 5889 5889 5889
5878 5880 5881 5881 5882 5882 5883 5883 5883 5882 5882 5882 5882 5882 5882 5881 5881 5881 5881 5881 5881 5881 5881 5881 5881 5881 5882 5882 5882 5882 5882 5883 5883 5883 5883 5884 5884 5885 5885 5885 5886 5886 5887
5876 5878 5879 5880 5881 5881 5882 5882 5882 5882 5882 5881 5881 5881 5881 5881 5881 5880 5880 5880 5881 5881 5881 5881 5881 5881 5881 5881 5881 5881 5881 5881 5881 5881 5881 5881 5882 5882 5882 5883 5883 5884 5884
5874 5875 5877 5878 5879 5880 5880 5881 5881 5881 5881 5881 5881 5881 5881 5881 5881 5880 5880 5880 5880 5880 5880 5880 5880 5880 5880 5880 5880 5879 5879 5879 5879 5879 5879 5879 5879 5879 5880 5880 5881 5881 5881
5871 5873 5875 5876 5877 5878 5879 5879 5880 5881 5881 5881 5881 5881 5881 5881 5881 5881 5881 5880 5880 5880 5880 5880 5879 5879 5879 5879 5879 5878 5878 5878 5878 5878 5878 5878 5877 5877 5877 5877 5878 5878 5878
5868 5870 5872 5874 5875 5876 5877 5878 5879 5880 5880 5880 5880 5881 5881 5881 5881 5881 5881 5880 5880 5880 5880 5879 5879 5879 5878 5878 5878 5877 5877 5877 5877 5877 5877 5876 5876 5875 5875 5875 5875 5875 5875
5865 5867 5869 5871 5873 5874 5875 5876 5877 5878 5878 5879 5879 5880 5880 5880 5880 5881 5881 5880 5880 5880 5879 5879 5878 5878 5877 5877 5877 5877 5876 5876 5875 5875 5875 5875 5874 5874 5873 5873 5872 5872 5872
5862 5864 5867 5869 5870 5872 5873 5875 5876 5876 5877 5877 5878 5878 5879 5879 5879 5880 5880 5880 5880 5879 5879 5878 5878 5877 5877 5876 5876 5876 5875 5875 5874 5874 5873 5873 5873 5872 5871 5871 5870 5870 5869
5859 5862 5864 5866 5868 5869 5871 5872 5873 5874 5875 5875 5876 5877 5877 5878 5878 5878 5878 5878 5878 5878 5878 5877 5877 5876 5876 5875 5875 5874 5874 5873 5872 5872 5871 5871 5870 5870 5869 5868 5867 5867 5866
5856 5858 5861 5863 5864 5866 5868 5869 5870 5871 5872 5873 5874 5874 5875 5875 5876 5876 5876 5876 5876 5876 5876 5875 5875 5874 5874 5873 5872 5872 5871 5870 5870 5869 5868 5868 5867 5866 5865 5865 5864 5863 5862
5853 5855 5857 5859 5861 5863 5864 5866 5867 5868 5869 5870 5870 5871 5872 5872 5873 5873 5873 5873 5873 5873 5873 5872 5872 5871 5870 5870 5869 5868 5868 5867 5866 5865 5865 5864 5863 5862 5861 5860 5859 5858 5857
5849 5851 5853 5856 5857 5859 5860 5862 5863 5864 5865 5866 5866 5867 5868 5868 5869 5869 5869 5869 5869 5869 5868 5868 5867 5867 5866 5865 5864 5864 5863 5862 5861 5860 5859 5858 5857 5856 5855 5854 5853 5852 5851
5846 5847 5849 5852 5853 5855 5856 5857 5859 5859 5860 5861 5862 5863 5863 5864 5864 5864 5864 5864 5864 5864 5863 5862 5862 5861 5860 5860 5859 5858 5857 5856 5855 5854 5853 5852 5851 5849 5848 5847 5846 5845 5844
5842 5844 5845 5847 5849 5850 5851 5852 5853 5854 5855 5856 5857 5857 5858 5858 5858 5858 5858 5858 5858 5857 5857 5856 5856 5855 5854 5853 5852 5851 5850 5849 5847 5846 5845 5844 5843 5841 5840 5838 5837 5836 5835
5838 5840 5841 5843 5844 5845 5846 5847 5848 5849 5850 5851 5851 5852 5852 5852 5852 5852 5851 5851 5851 5850 5850 5849 5848 5848 5847 5846 5845 5843 5842 5841 5839 5838 5836 5835 5834 5832 5830 5829 5827 5826 5824
5834 5835 5837 5838 5839 5840 5840 5841 5842 5843 5844 5845 5845 5845 5845 5846 5845 5845 5844 5844 5843 5843 5842 5841 5840 5839 5838 5837 5836 5835 5833 5832 5830 5828 5826 5825 5823 5822 5820 5818 5816 5815 5813
5830 5831 5832 5833 5834 5835 5836 5836 5837 5838 5838 5839 5839 5839 5839 5839 5839 5838 5837 5836 5835 5835 5834 5833 5831 5830 5829 5827 5826 5825 5823 5821 5819 5817 5815 5813 5812 5810 5808 5806 5804 5802 5800
5827 5828 5828 5829 5829 5830 5831 5831 5832 5832 5833 5833 5833 5832 5832 5832 5831 5830 5829 5828 5827 5826 5825 5823 5822 5820 5819 5817 5815 5814 5812 5810 5807 5805 5803 5801 5799 5797 5794 5792 5790 5788 5786
5823 5823 5824 5825 5825 5825 5826 5826 5826 5827 5827 5826 5826 5826 5825 5824 5823 5822 5821 5820 5819 5817 5816 5814 5812 5810 5808 5806 5804 5802 5800 5798 5795 5793 5790 5788 5785 5783 5780 5777 5774 5772 5770
5819 5820 5820 5820 5821 5821 5821 5821 5821 5821 5820 5820 5819 5818 5817 5816 5815 5814 5812 5811 5809 5807 5805 5803 5801 5799 5797 5794 5792 5789 5786 5783 5781 5778 5775 5773 5770 5767 5764 5760 5757 5754 5752
5815 5815 5815 5815 5815 5815 5815 5815 5815 5814 5813 5812 5811 5810 5809 5807 5806 5805 5803 5801 5799 5797 5794 5792 5789 5786 5784 5781 5778 5775 5772 5769 5765 5762 5759 5757 5754 5751 5747 5742 5739 5735 5733
5811 5810 5810 5810 5809 5809 5809 5808 5807 5806 5805 5804 5803 5801 5800 5798 5796 5794 5792 5790 5788 5785 5782 5779 5776 5773 5770 5767 5764 5761 5757 5754 5750 5745 5741 5738 5736 5733 5729 5724 5719 5715 5711
5805 5804 5804 5803 5803 5802 5801 5800 5799 5798 5796 5795 5793 5792 5790 5788 5786 5783 5781 5778 5775 5772 5769 5766 5762 5759 5755 5751 5747 5744 5740 5736 5732 5728 5723 5719 5715 5711 5710 5705 5699 5694 5689